This is the latest recevied weather packets stored in our database for station/object KI7JYE. If no packets are shown the sender has not sent any weather packets the latest 10 day(s).
| Time | Temp. | Humidity | Pressure | Rain* | Wind** | Luminosity | Snow |
|---|---|---|---|---|---|---|---|
| 1777775259 | 18.89° C | 74% | 1011.1 hPa | 0 mm | - | 36 W/m² | - |
| 1777774954 | 18.89° C | 73% | 1011.5 hPa | 0 mm | - | 42 W/m² | - |
| 1777774651 | 18.89° C | 73% | 1011.5 hPa | 0 mm | - | 48 W/m² | - |
| 1777774347 | 18.89° C | 73% | 1011.8 hPa | 0 mm | - | 54 W/m² | - |
| 1777774045 | 18.89° C | 73% | 1011.7 hPa | 0 mm | - | 58 W/m² | - |
| 1777773742 | 18.89° C | 73% | 1012 hPa | 0 mm | - | 62 W/m² | - |
| 1777773439 | 18.89° C | 72% | 1011.7 hPa | 0 mm | - | 66 W/m² | - |
| 1777773136 | 19.44° C | 71% | 1011.8 hPa | 0 mm | - | 70 W/m² | - |
| 1777772831 | 20° C | 71% | 1011.3 hPa | 0 mm | - | 74 W/m² | - |
| 1777772530 | 20° C | 70% | 1011.2 hPa | 0 mm | - | 79 W/m² | - |
| 1777772226 | 20° C | 70% | 1010.8 hPa | 0 mm | - | 83 W/m² | - |
| 1777771925 | 20° C | 69% | 1010.7 hPa | 0 mm | - | 88 W/m² | - |
| 1777771622 | 20° C | 69% | 1011 hPa | 0 mm | - | 94 W/m² | - |
| 1777771318 | 20° C | 69% | 1010.7 hPa | 0 mm | - | 109 W/m² | - |
| 1777771014 | 20° C | 68% | 1010.5 hPa | 0 mm | - | 132 W/m² | - |
| 1777770711 | 20° C | 69% | 1011 hPa | 0 mm | - | 140 W/m² | - |
| 1777770408 | 20° C | 69% | 1010.4 hPa | 0 mm | - | 149 W/m² | - |
| 1777770105 | 20° C | 69% | 1010.7 hPa | 0 mm | - | 183 W/m² | - |
| 1777769802 | 20° C | 70% | 1010.7 hPa | 0 mm | - | 241 W/m² | - |
| 1777769499 | 20° C | 70% | 1010.4 hPa | 0 mm | - | 233 W/m² | - |
| 1777769196 | 20° C | 70% | 1010.4 hPa | 0 mm | - | 203 W/m² | - |
| 1777768894 | 19.44° C | 72% | 1010.4 hPa | 0 mm | - | 173 W/m² | - |
| 1777768591 | 19.44° C | 71% | 1010.2 hPa | 0 mm | - | 159 W/m² | - |
| 1777768288 | 19.44° C | 70% | 1010.3 hPa | 0 mm | - | 149 W/m² | - |
| 1777767985 | 20° C | 69% | 1010.2 hPa | 0 mm | - | 141 W/m² | - |
* Rain latest hour (hover to see other rain measurements)
** Current wind speed in m/s (hover to see current wind gust speed)